Flag for Argentina Weather past 2 weeks in Salta, Salta, Argentina

Now
70 °F

Sunny.


Feels Like: 70 °F
Forecast: 44 / 73 °F
Wind: 5 mph from Northeast

Location: Salta Aerodrome

Current Time: Aug 1, 2015 at 1:30:41 PM

Latest Report: Aug 1, 2015 at 1:00 PM


Visibility: 10 mi

Pressure: 29.95 "Hg (26.10 "Hg at 1184m altitude)

Humidity: 43%

Dew point: 46 °F

Location of SaltaLocation

Historic Weather in Salta — Graph

°F

Salta temperature yesterday

Maximum temperature yesterday: 79 °F (at 1:00 PM)
Minimum temperature yesterday: 46 °F (at 6:00 AM)
Average temperature yesterday: 63 °F

Past Weeks' High & Low Weather Summary

 TemperatureHumidityPressure
High88 °F (Jul 28, 5:00 PM)100% (Jul 18, 3:00 AM)30.39 "Hg (Jul 18, 3:00 AM)
Low32 °F (Jul 18, 8:00 AM)13% (Jul 28, 5:00 PM)29.80 "Hg (Jul 19, 4:00 PM)
Average54 °F70%30.07 "Hg
* Reported Jul 17 12:00 Noon — Aug 1 12:00 Noon, Salta, Weather by CustomWeather, © 2015

Note: Actual official high and low records may vary slightly from our data, if they occured in-between our weather recording intervals... More about our weather records

Advertising

Salta weather history for previous 24 hours

 ConditionsComfort  
Time TempWeatherWind HumidityBarometerVisibility
12:00 PM
Sat, Aug 1
66 °FHaze.5 mph52%30.01 "Hg3 mi
11:00 AM64 °FHaze.2 mph37%30.04 "Hg3 mi
10:00 AM57 °FClear.2 mph67%30.04 "Hg4 mi
9:00 AM46 °FClear.2 mph87%30.04 "Hg4 mi
8:00 AM46 °FClear.No wind87%30.04 "Hg6 mi
7:00 AM48 °FSunny.2 mph76%30.04 "Hg10 mi
6:00 AM48 °FClear.7 mph76%30.04 "Hg10 mi
5:00 AM46 °FClear.7 mph82%30.04 "Hg10 mi
4:00 AM48 °FClear.No wind87%30.07 "Hg10 mi
3:00 AM52 °FClear.No wind82%30.09 "Hg10 mi
2:00 AM57 °FClear.5 mph67%30.12 "Hg10 mi
1:00 AM57 °FClear.7 mph67%30.12 "Hg10 mi
12:00 AM61 °FClear.6 mph59%30.12 "Hg10 mi
11:00 PM
Fri, Jul 31
63 °FClear.7 mph56%30.12 "Hg10 mi
10:00 PM64 °FClear.9 mph49%30.12 "Hg10 mi
9:00 PM64 °FClear.13 mph46%30.09 "Hg10 mi
8:00 PM66 °FClear.8 mph40%30.07 "Hg10 mi
7:00 PM68 °FClear.6 mph33%30.04 "Hg10 mi
6:00 PM73 °FClear.16 mph25%29.98 "Hg10 mi
5:00 PM77 °FSunny.15 mph24%29.98 "Hg10 mi
4:00 PM79 °FSunny.16 mph34%29.95 "Hg10 mi
3:00 PM79 °FSunny.13 mph34%29.98 "Hg10 mi
2:00 PM79 °FSunny.14 mph34%29.98 "Hg10 mi
1:00 PM79 °FSunny.5 mph42%29.98 "Hg10 mi
Weather by CustomWeather, © 2015

See weather overviewHow to use our weather pages